| time (UTC) | temp F | wind direction | speed MPH | gust MPH | rain 1hr in | rain 24hr in | rain mn in | humidity % | barometer mb |
| 20260906201636 | 79 | 161 | 5.0 | 15.0 | 0.00 | 0.00 | 0.00 | 62 | 1018.1 |
| 20260906201038 | 79 | 155 | 7.0 | 15.0 | 0.00 | 0.00 | 0.00 | 61 | 1018.1 |
| 20260906200538 | 80 | 178 | 6.0 | 17.0 | 0.00 | 0.00 | 0.00 | 60 | 1018.1 |
| 20260906200100 | 80 | 181 | 6.0 | 17.0 | 0.00 | 0.00 | 0.00 | 60 | 1018.0 |
| 20260906195539 | 80 | 195 | 7.0 | 17.0 | 0.00 | 0.00 | 0.00 | 60 | 1017.9 |
| 20260906195039 | 80 | 173 | 4.0 | 12.0 | 0.00 | 0.00 | 0.00 | 63 | 1017.9 |
| 20260906194606 | 80 | 129 | 5.0 | 11.0 | 0.00 | 0.00 | 0.00 | 63 | 1017.8 |
| 20260906194038 | 80 | 288 | 6.0 | 11.0 | 0.00 | 0.00 | 0.00 | 62 | 1017.9 |
| 20260906193539 | 79 | 169 | 6.0 | 11.0 | 0.00 | 0.00 | 0.00 | 63 | 1017.8 |
| 20260906193102 | 79 | 178 | 4.0 | 10.0 | 0.00 | 0.00 | 0.00 | 63 | 1018.0 |
| 20260906192538 | 80 | 150 | 4.0 | 11.0 | 0.00 | 0.00 | 0.00 | 64 | 1018.1 |
| 20260906192039 | 80 | 86 | 5.0 | 11.0 | 0.00 | 0.00 | 0.00 | 63 | 1018.1 |
| 20260906191611 | 79 | 94 | 3.0 | 10.0 | 0.00 | 0.00 | 0.00 | 66 | 1017.9 |
| 20260906191042 | 79 | 51 | 5.0 | 10.0 | 0.00 | 0.00 | 0.00 | 66 | 1018.1 |
| 20260906190538 | 79 | 137 | 3.0 | 9.0 | 0.00 | 0.00 | 0.00 | 66 | 1018.2 |
| 20260906190104 | 79 | 134 | 3.0 | 9.0 | 0.00 | 0.00 | 0.00 | 65 | 1018.3 |
| 20260906185543 | 79 | 149 | 3.0 | 11.0 | 0.00 | 0.00 | 0.00 | 68 | 1018.3 |
| 20260906185040 | 79 | 149 | 3.0 | 11.0 | 0.00 | 0.00 | 0.00 | 68 | 1018.3 |
| 20260906184602 | 79 | 84 | 3.0 | 9.0 | 0.00 | 0.00 | 0.00 | 68 | 1018.3 |
| 20260906184041 | 79 | 169 | 3.0 | 9.0 | 0.00 | 0.00 | 0.00 | 69 | 1018.3 |
| 20260906183542 | 78 | 157 | 3.0 | 10.0 | 0.00 | 0.00 | 0.00 | 68 | 1018.3 |
| 20260906183106 | 78 | 180 | 3.0 | 15.0 | 0.00 | 0.00 | 0.00 | 69 | 1018.3 |
| 20260906182544 | 78 | 109 | 4.0 | 15.0 | 0.00 | 0.00 | 0.00 | 69 | 1018.4 |
| 20260906182044 | 78 | 142 | 5.0 | 14.0 | 0.00 | 0.00 | 0.00 | 69 | 1018.3 |
| 20260906181632 | 78 | 79 | 3.0 | 9.0 | 0.00 | 0.00 | 0.00 | 71 | 1018.3 |
| 20260906181042 | 78 | 144 | 3.0 | 10.0 | 0.00 | 0.00 | 0.00 | 70 | 1018.3 |
| 20260906180542 | 78 | 38 | 4.0 | 10.0 | 0.00 | 0.00 | 0.00 | 70 | 1018.3 |
| 20260906180106 | 78 | 105 | 4.0 | 10.0 | 0.00 | 0.00 | 0.00 | 70 | 1018.4 |
| 20260906175540 | 78 | 38 | 2.0 | 8.0 | 0.00 | 0.00 | 0.00 | 69 | 1018.2 |
| 20260906175041 | 78 | 134 | 4.0 | 8.0 | 0.00 | 0.00 | 0.00 | 70 | 1018.3 |
| 20260906174610 | 78 | 67 | 3.0 | 7.0 | 0.00 | 0.00 | 0.00 | 70 | 1018.4 |
| 20260906174041 | 78 | 175 | 3.0 | 7.0 | 0.00 | 0.00 | 0.00 | 70 | 1018.5 |
| 20260906173542 | 78 | 97 | 3.0 | 7.0 | 0.00 | 0.00 | 0.00 | 70 | 1018.5 |
| 20260906173106 | 78 | 60 | 3.0 | 7.0 | 0.00 | 0.00 | 0.00 | 70 | 1018.7 |
| 20260906172540 | 78 | 93 | 3.0 | 7.0 | 0.00 | 0.00 | 0.00 | 71 | 1018.8 |
| 20260906172040 | 78 | 119 | 3.0 | 9.0 | 0.00 | 0.00 | 0.00 | 70 | 1019.0 |
| 20260906171600 | 78 | 100 | 2.0 | 9.0 | 0.00 | 0.00 | 0.00 | 70 | 1019.0 |
| 20260906171040 | 78 | 180 | 3.0 | 9.0 | 0.00 | 0.00 | 0.00 | 71 | 1019.1 |
| 20260906170540 | 78 | 130 | 3.0 | 8.0 | 0.00 | 0.00 | 0.00 | 70 | 1019.2 |
| 20260906165541 | 78 | 127 | 3.0 | 10.0 | 0.00 | 0.00 | 0.00 | 72 | 1018.8 |
| 20260906165040 | 77 | 135 | 3.0 | 13.0 | 0.00 | 0.00 | 0.00 | 72 | 1018.7 |
| 20260906164600 | 77 | 236 | 4.0 | 13.0 | 0.00 | 0.00 | 0.00 | 74 | 1018.6 |
| 20260906164041 | 76 | 165 | 4.0 | 16.0 | 0.00 | 0.00 | 0.00 | 73 | 1018.6 |
| 20260906163541 | 76 | 105 | 6.0 | 16.0 | 0.00 | 0.00 | 0.00 | 74 | 1018.7 |
| 20260906163102 | 76 | 150 | 4.0 | 15.0 | 0.00 | 0.00 | 0.00 | 76 | 1018.7 |
| 20260906162541 | 76 | 207 | 5.0 | 15.0 | 0.00 | 0.00 | 0.00 | 76 | 1018.7 |
| 20260906162043 | 76 | 190 | 5.0 | 13.0 | 0.00 | 0.00 | 0.00 | 76 | 1018.8 |
| 20260906161608 | 75 | 192 | 5.0 | 11.0 | 0.00 | 0.00 | 0.00 | 78 | 1018.8 |
| 20260906161041 | 75 | 148 | 4.0 | 11.0 | 0.00 | 0.00 | 0.00 | 79 | 1019.0 |
| 20260906160540 | 74 | 149 | 4.0 | 11.0 | 0.00 | 0.00 | 0.00 | 79 | 1018.9 |
| 20260906155539 | 73 | 181 | 5.0 | 12.0 | 0.00 | 0.00 | 0.00 | 81 | 1019.1 |
| 20260906155039 | 73 | 179 | 5.0 | 12.0 | 0.00 | 0.00 | 0.00 | 81 | 1019.0 |
| 20260906154559 | 73 | 182 | 6.0 | 10.0 | 0.00 | 0.00 | 0.00 | 82 | 1019.0 |
| 20260906154039 | 72 | 141 | 4.0 | 10.0 | 0.00 | 0.00 | 0.00 | 82 | 1019.1 |
| 20260906153538 | 72 | 131 | 5.0 | 9.0 | 0.00 | 0.00 | 0.00 | 83 | 1019.1 |
| 20260906153110 | 72 | 200 | 3.0 | 9.0 | 0.00 | 0.00 | 0.00 | 83 | 1019.3 |
| 20260906152538 | 71 | 148 | 3.0 | 7.0 | 0.00 | 0.00 | 0.00 | 85 | 1019.3 |
| 20260906152044 | 71 | 174 | 4.0 | 7.0 | 0.00 | 0.00 | 0.00 | 85 | 1019.2 |
| 20260906151600 | 71 | 191 | 2.0 | 7.0 | 0.00 | 0.00 | 0.00 | 87 | 1019.2 |
| 20260906151038 | 70 | 111 | 3.0 | 7.0 | 0.00 | 0.00 | 0.00 | 88 | 1019.3 |
| 20260906150542 | 69 | 103 | 3.0 | 10.0 | 0.00 | 0.00 | 0.00 | 89 | 1019.4 |
| 20260906145541 | 68 | 164 | 2.0 | 8.0 | 0.00 | 0.00 | 0.00 | 90 | 1019.2 |
| 20260906145041 | 68 | 183 | 3.0 | 8.0 | 0.00 | 0.00 | 0.00 | 91 | 1019.3 |
| 20260906144603 | 67 | 132 | 3.0 | 8.0 | 0.00 | 0.00 | 0.00 | 91 | 1019.4 |
| 20260906144043 | 67 | 130 | 3.0 | 7.0 | 0.00 | 0.00 | 0.00 | 91 | 1019.4 |
| 20260906143539 | 67 | 88 | 1.0 | 6.0 | 0.00 | 0.00 | 0.00 | 92 | 1019.5 |
| 20260906143101 | 67 | 146 | 2.0 | 6.0 | 0.00 | 0.00 | 0.00 | 92 | 1019.5 |
| 20260906142538 | 67 | 70 | 2.0 | 6.0 | 0.00 | 0.00 | 0.00 | 92 | 1019.6 |
| 20260906142039 | 66 | 109 | 2.0 | 4.0 | 0.00 | 0.00 | 0.00 | 93 | 1019.5 |
| 20260906141604 | 66 | 150 | 1.0 | 5.0 | 0.00 | 0.00 | 0.00 | 93 | 1019.5 |
| 20260906141038 | 66 | 138 | 1.0 | 5.0 | 0.00 | 0.00 | 0.00 | 93 | 1019.6 |
| 20260906140539 | 65 | 142 | 2.0 | 6.0 | 0.00 | 0.00 | 0.00 | 93 | 1019.7 |
| 20260906140108 | 65 | 127 | 2.0 | 8.0 | 0.00 | 0.00 | 0.00 | 93 | 1019.7 |
| 20260906135541 | 65 | 142 | 3.0 | 9.0 | 0.00 | 0.00 | 0.00 | 93 | 1019.7 |
| 20260906135039 | 65 | 167 | 3.0 | 9.0 | 0.00 | 0.00 | 0.00 | 93 | 1019.6 |
| 20260906134605 | 65 | 139 | 1.0 | 3.0 | 0.00 | 0.00 | 0.00 | 94 | 1019.7 |
| 20260906134041 | 65 | 90 | 1.0 | 4.0 | 0.00 | 0.00 | 0.00 | 94 | 1019.8 |
| 20260906133541 | 64 | 117 | 2.0 | 5.0 | 0.00 | 0.00 | 0.00 | 94 | 1019.7 |
| 20260906133113 | 64 | 190 | 1.0 | 5.0 | 0.00 | 0.00 | 0.00 | 94 | 1019.6 |
| 20260906132544 | 64 | 115 | 2.0 | 8.0 | 0.00 | 0.00 | 0.00 | 94 | 1019.6 |
| 20260906132039 | 64 | 155 | 1.0 | 8.0 | 0.00 | 0.00 | 0.00 | 94 | 1019.5 |
| 20260906131600 | 64 | 106 | 2.0 | 8.0 | 0.00 | 0.00 | 0.00 | 94 | 1019.4 |
| 20260906131040 | 63 | 49 | 2.0 | 6.0 | 0.00 | 0.00 | 0.00 | 94 | 1019.5 |
| 20260906130542 | 63 | 113 | 1.0 | 6.0 | 0.00 | 0.00 | 0.00 | 94 | 1019.2 |
| 20260906130112 | 63 | 92 | 1.0 | 7.0 | 0.00 | 0.00 | 0.00 | 94 | 1019.1 |
| 20260906125544 | 63 | 136 | 1.0 | 7.0 | 0.00 | 0.00 | 0.00 | 94 | 1019.0 |
| 20260906125043 | 63 | 171 | 2.0 | 7.0 | 0.00 | 0.00 | 0.00 | 94 | 1019.0 |
| 20260906124608 | 63 | 86 | 1.0 | 6.0 | 0.00 | 0.00 | 0.00 | 94 | 1019.1 |
| 20260906124044 | 63 | 132 | 1.0 | 6.0 | 0.00 | 0.00 | 0.00 | 94 | 1019.1 |
| 20260906123540 | 63 | 95 | 2.0 | 6.0 | 0.00 | 0.00 | 0.00 | 94 | 1019.0 |
| 20260906123101 | 63 | 95 | 1.0 | 4.0 | 0.00 | 0.00 | 0.00 | 94 | 1019.1 |
| 20260906122540 | 63 | 106 | 2.0 | 7.0 | 0.00 | 0.00 | 0.00 | 94 | 1019.1 |
| 20260906122042 | 63 | 142 | 1.0 | 7.0 | 0.00 | 0.00 | 0.00 | 93 | 1019.0 |
| 20260906121608 | 62 | 84 | 1.0 | 4.0 | 0.00 | 0.00 | 0.00 | 93 | 1019.0 |
| 20260906121040 | 62 | 47 | 2.0 | 6.0 | 0.00 | 0.00 | 0.00 | 93 | 1018.8 |
| 20260906120541 | 62 | 134 | 1.0 | 6.0 | 0.00 | 0.00 | 0.00 | 93 | 1018.7 |
| 20260906120100 | 62 | 124 | 2.0 | 7.0 | 0.00 | 0.00 | 0.00 | 93 | 1018.8 |
| 20260906115542 | 62 | 80 | 2.0 | 7.0 | 0.00 | 0.00 | 0.00 | 93 | 1018.9 |
| 20260906115041 | 62 | 95 | 3.0 | 7.0 | 0.00 | 0.00 | 0.00 | 93 | 1018.9 |
| 20260906114625 | 62 | 84 | 2.0 | 7.0 | 0.00 | 0.00 | 0.00 | 93 | 1018.9 |
| 20260906114040 | 62 | 46 | 3.0 | 6.0 | 0.00 | 0.00 | 0.00 | 93 | 1018.9 |
| 20260906113541 | 62 | 106 | 2.0 | 7.0 | 0.00 | 0.00 | 0.00 | 93 | 1019.0 |
| 20260906113113 | 62 | 161 | 3.0 | 7.0 | 0.00 | 0.00 | 0.00 | 93 | 1019.1 |
| 20260906112541 | 62 | 90 | 3.0 | 6.0 | 0.00 | 0.00 | 0.00 | 92 | 1018.9 |
| 20260906112040 | 62 | 79 | 2.0 | 6.0 | 0.00 | 0.00 | 0.00 | 92 | 1018.7 |
| 20260906111558 | 62 | 143 | 1.0 | 5.0 | 0.00 | 0.00 | 0.00 | 92 | 1018.7 |
| 20260906111041 | 62 | 65 | 2.0 | 5.0 | 0.00 | 0.00 | 0.00 | 92 | 1018.8 |
| 20260906110541 | 62 | 115 | 1.0 | 4.0 | 0.00 | 0.00 | 0.00 | 92 | 1018.7 |
| 20260906110059 | 62 | 141 | 2.0 | 6.0 | 0.00 | 0.00 | 0.00 | 92 | 1018.6 |
| 20260906105541 | 63 | 84 | 2.0 | 6.0 | 0.00 | 0.00 | 0.00 | 92 | 1018.7 |
| 20260906105043 | 63 | 76 | 1.0 | 6.0 | 0.00 | 0.00 | 0.00 | 92 | 1018.7 |
| 20260906104602 | 63 | 168 | 1.0 | 8.0 | 0.00 | 0.00 | 0.00 | 92 | 1018.7 |
| 20260906104041 | 63 | 126 | 2.0 | 8.0 | 0.00 | 0.00 | 0.00 | 92 | 1018.7 |
| 20260906103541 | 63 | 69 | 1.0 | 5.0 | 0.00 | 0.00 | 0.00 | 92 | 1018.6 |
| 20260906103100 | 63 | 36 | 2.0 | 7.0 | 0.00 | 0.00 | 0.00 | 92 | 1018.6 |
| 20260906102541 | 63 | 120 | 1.0 | 7.0 | 0.00 | 0.00 | 0.00 | 92 | 1018.5 |
| 20260906102043 | 63 | 150 | 1.0 | 7.0 | 0.00 | 0.00 | 0.00 | 92 | 1018.6 |
| 20260906101602 | 63 | 84 | 2.0 | 7.0 | 0.00 | 0.00 | 0.00 | 92 | 1018.5 |
| 20260906101041 | 63 | 92 | 2.0 | 7.0 | 0.00 | 0.00 | 0.00 | 92 | 1018.3 |
| 20260906100541 | 63 | 96 | 1.0 | 4.0 | 0.00 | 0.00 | 0.00 | 92 | 1018.2 |
| 20260906100106 | 63 | 64 | 1.0 | 4.0 | 0.00 | 0.00 | 0.00 | 92 | 1018.3 |
| 20260906095541 | 63 | 95 | 1.0 | 4.0 | 0.00 | 0.00 | 0.00 | 92 | 1018.0 |
| 20260906095041 | 63 | 99 | 2.0 | 4.0 | 0.00 | 0.00 | 0.00 | 92 | 1017.9 |
| 20260906094559 | 63 | 82 | 2.0 | 4.0 | 0.00 | 0.00 | 0.00 | 92 | 1017.8 |
| 20260906094040 | 63 | 121 | 1.0 | 4.0 | 0.00 | 0.00 | 0.00 | 92 | 1017.6 |
| 20260906093541 | 63 | 86 | 1.0 | 5.0 | 0.00 | 0.00 | 0.00 | 92 | 1017.7 |
| 20260906093105 | 63 | 94 | 2.0 | 5.0 | 0.00 | 0.00 | 0.00 | 92 | 1017.7 |
| 20260906092541 | 63 | 169 | 1.0 | 5.0 | 0.00 | 0.00 | 0.00 | 92 | 1017.6 |
| 20260906092045 | 63 | 138 | 2.0 | 5.0 | 0.00 | 0.00 | 0.00 | 92 | 1017.6 |
| 20260906091619 | 63 | 63 | 1.0 | 5.0 | 0.00 | 0.00 | 0.00 | 92 | 1017.6 |
| 20260906091038 | 63 | 68 | 1.0 | 6.0 | 0.00 | 0.00 | 0.00 | 92 | 1017.6 |
| 20260906090541 | 63 | 78 | 1.0 | 6.0 | 0.00 | 0.00 | 0.00 | 92 | 1017.7 |
| 20260906090106 | 63 | 107 | 2.0 | 4.0 | 0.00 | 0.00 | 0.00 | 91 | 1017.8 |
| 20260906085538 | 63 | 80 | 1.0 | 4.0 | 0.00 | 0.00 | 0.00 | 92 | 1017.8 |
| 20260906085043 | 63 | 152 | 1.0 | 4.0 | 0.00 | 0.00 | 0.00 | 92 | 1017.9 |
| 20260906084601 | 63 | 65 | 1.0 | 4.0 | 0.00 | 0.00 | 0.00 | 91 | 1017.9 |
| 20260906084041 | 64 | 198 | 1.0 | 4.0 | 0.00 | 0.00 | 0.00 | 91 | 1017.8 |
| 20260906083538 | 64 | 166 | 1.0 | 4.0 | 0.00 | 0.00 | 0.00 | 91 | 1017.8 |
| 20260906083059 | 64 | 132 | 2.0 | 5.0 | 0.00 | 0.00 | 0.00 | 91 | 1017.8 |
| 20260906082540 | 64 | 134 | 1.0 | 5.0 | 0.00 | 0.00 | 0.00 | 91 | 1017.8 |
| 20260906082041 | 64 | 175 | 2.0 | 6.0 | 0.00 | 0.00 | 0.00 | 91 | 1017.8 |
| 20260906081602 | 64 | 114 | 2.0 | 6.0 | 0.00 | 0.00 | 0.00 | 91 | 1017.9 |
| 20260906081040 | 64 | 60 | 1.0 | 5.0 | 0.00 | 0.00 | 0.00 | 91 | 1018.0 |
| 20260906080543 | 64 | 78 | 1.0 | 6.0 | 0.00 | 0.00 | 0.00 | 91 | 1018.0 |
| 20260906080109 | 64 | 132 | 2.0 | 7.0 | 0.00 | 0.00 | 0.00 | 92 | 1018.1 |
| 20260906075541 | 64 | 142 | 2.0 | 7.0 | 0.00 | 0.00 | 0.00 | 92 | 1018.1 |
| 20260906075041 | 64 | 107 | 2.0 | 6.0 | 0.00 | 0.00 | 0.00 | 92 | 1018.1 |
| 20260906074602 | 64 | 78 | 1.0 | 7.0 | 0.00 | 0.00 | 0.00 | 92 | 1018.2 |
| 20260906074040 | 64 | 37 | 1.0 | 7.0 | 0.00 | 0.00 | 0.00 | 92 | 1018.3 |
| 20260906073541 | 64 | 48 | 1.0 | 7.0 | 0.00 | 0.00 | 0.00 | 92 | 1018.3 |
| 20260906073100 | 64 | 84 | 2.0 | 6.0 | 0.00 | 0.00 | 0.00 | 92 | 1018.2 |
| 20260906072544 | 64 | 108 | 2.0 | 6.0 | 0.00 | 0.00 | 0.00 | 92 | 1018.3 |
| 20260906072040 | 64 | 136 | 1.0 | 4.0 | 0.00 | 0.00 | 0.00 | 92 | 1018.3 |
| 20260906071608 | 64 | 136 | 1.0 | 4.0 | 0.00 | 0.00 | 0.00 | 92 | 1018.4 |
| 20260906071040 | 64 | 93 | 1.0 | 3.0 | 0.00 | 0.00 | 0.00 | 92 | 1018.5 |
| 20260906070541 | 64 | 89 | 1.0 | 2.0 | 0.00 | 0.00 | 0.00 | 92 | 1018.6 |
| 20260906065543 | 64 | 89 | 0.0 | 2.0 | 0.00 | 0.00 | 0.00 | 91 | 1018.6 |
| 20260906065041 | 64 | 149 | 1.0 | 3.0 | 0.00 | 0.00 | 0.00 | 91 | 1018.6 |
| 20260906064603 | 64 | 82 | 1.0 | 4.0 | 0.00 | 0.00 | 0.00 | 91 | 1018.5 |
| 20260906064041 | 64 | 63 | 1.0 | 4.0 | 0.00 | 0.00 | 0.00 | 91 | 1018.5 |
| 20260906063544 | 64 | 132 | 2.0 | 4.0 | 0.00 | 0.00 | 0.00 | 91 | 1018.5 |
| 20260906063100 | 64 | 100 | 2.0 | 4.0 | 0.00 | 0.00 | 0.00 | 91 | 1018.5 |
| 20260906062542 | 64 | 80 | 1.0 | 4.0 | 0.00 | 0.00 | 0.00 | 91 | 1018.5 |
| 20260906062044 | 64 | 138 | 1.0 | 3.0 | 0.00 | 0.00 | 0.00 | 91 | 1018.5 |
| 20260906061605 | 64 | 140 | 1.0 | 3.0 | 0.00 | 0.00 | 0.00 | 91 | 1018.5 |
| 20260906061041 | 64 | 53 | 1.0 | 5.0 | 0.00 | 0.00 | 0.00 | 91 | 1018.6 |
| 20260906060541 | 64 | 167 | 2.0 | 5.0 | 0.00 | 0.00 | 0.00 | 91 | 1018.5 |
| 20260906060150 | 64 | 93 | 1.0 | 6.0 | 0.00 | 0.00 | 0.00 | 91 | 1018.5 |
| 20260906055541 | 64 | 106 | 2.0 | 6.0 | 0.00 | 0.00 | 0.00 | 91 | 1018.5 |
| 20260906055041 | 64 | 76 | 2.0 | 6.0 | 0.00 | 0.00 | 0.00 | 91 | 1018.4 |
| 20260906054554 | 64 | 70 | 1.0 | 6.0 | 0.00 | 0.00 | 0.00 | 91 | 1018.4 |
| 20260906054041 | 64 | 32 | 2.0 | 6.0 | 0.00 | 0.00 | 0.00 | 91 | 1018.4 |
| 20260906053545 | 64 | 103 | 2.0 | 6.0 | 0.00 | 0.00 | 0.00 | 91 | 1018.4 |
| 20260906053102 | 64 | 44 | 2.0 | 6.0 | 0.00 | 0.00 | 0.00 | 91 | 1018.4 |
| 20260906052541 | 64 | 70 | 2.0 | 5.0 | 0.00 | 0.00 | 0.00 | 91 | 1018.4 |
| 20260906052041 | 64 | 129 | 3.0 | 6.0 | 0.00 | 0.00 | 0.00 | 90 | 1018.3 |
| 20260906051559 | 65 | 78 | 2.0 | 6.0 | 0.00 | 0.00 | 0.00 | 90 | 1018.2 |
| 20260906051041 | 65 | 82 | 1.0 | 6.0 | 0.00 | 0.00 | 0.00 | 90 | 1018.1 |
| 20260906050541 | 65 | 76 | 1.0 | 6.0 | 0.00 | 0.00 | 0.00 | 90 | 1018.2 |
| 20260906050114 | 65 | 80 | 2.0 | 5.0 | 0.00 | 0.00 | 0.00 | 90 | 1018.2 |
| 20260906045541 | 65 | 69 | 1.0 | 4.0 | 0.00 | 0.00 | 0.00 | 90 | 1018.2 |
| 20260906045041 | 65 | 33 | 2.0 | 5.0 | 0.00 | 0.00 | 0.00 | 90 | 1018.2 |
| 20260906044601 | 65 | 74 | 2.0 | 5.0 | 0.00 | 0.00 | 0.00 | 89 | 1018.4 |
| 20260906044044 | 65 | 51 | 1.0 | 6.0 | 0.00 | 0.00 | 0.00 | 89 | 1018.5 |
| 20260906043540 | 65 | 80 | 2.0 | 6.0 | 0.00 | 0.00 | 0.00 | 89 | 1018.6 |
| 20260906043105 | 66 | 61 | 2.0 | 4.0 | 0.00 | 0.00 | 0.00 | 89 | 1018.5 |
| 20260906042541 | 66 | 59 | 1.0 | 4.0 | 0.00 | 0.00 | 0.00 | 89 | 1018.5 |
| 20260906042041 | 66 | 80 | 1.0 | 6.0 | 0.00 | 0.00 | 0.00 | 89 | 1018.5 |
| 20260906041601 | 66 | 55 | 1.0 | 6.0 | 0.00 | 0.00 | 0.00 | 89 | 1018.2 |
| 20260906041041 | 66 | 109 | 0.0 | 7.0 | 0.00 | 0.00 | 0.00 | 89 | 1018.2 |
| 20260906040539 | 66 | 56 | 2.0 | 7.0 | 0.00 | 0.00 | 0.00 | 88 | 1018.2 |
| 20260906040111 | 66 | 73 | 1.0 | 3.0 | 0.00 | 0.00 | 0.00 | 88 | 1018.3 |
| 20260906035542 | 67 | 101 | 1.0 | 2.0 | 0.00 | 0.00 | 0.00 | 88 | 1018.4 |
| 20260906035041 | 67 | 98 | 0.0 | 2.0 | 0.00 | 0.00 | 0.00 | 88 | 1018.4 |
| 20260906034603 | 67 | 102 | 0.0 | 2.0 | 0.00 | 0.00 | 0.00 | 88 | 1018.4 |
| 20260906034042 | 67 | 0 | 0.0 | 4.0 | 0.00 | 0.00 | 0.00 | 88 | 1018.3 |
| 20260906033540 | 67 | 69 | 1.0 | 4.0 | 0.00 | 0.00 | 0.00 | 87 | 1018.3 |
| 20260906033104 | 67 | 76 | 1.0 | 4.0 | 0.00 | 0.00 | 0.00 | 87 | 1018.4 |
| 20260906032541 | 67 | 123 | 1.0 | 3.0 | 0.00 | 0.00 | 0.00 | 87 | 1018.5 |
| 20260906032041 | 67 | 50 | 0.0 | 3.0 | 0.00 | 0.00 | 0.00 | 87 | 1018.4 |
| 20260906031630 | 67 | 61 | 1.0 | 4.0 | 0.00 | 0.00 | 0.00 | 87 | 1018.3 |
| 20260906031038 | 68 | 83 | 1.0 | 4.0 | 0.00 | 0.00 | 0.00 | 87 | 1018.3 |
| 20260906030541 | 68 | 122 | 1.0 | 3.0 | 0.00 | 0.00 | 0.00 | 87 | 1018.3 |
| 20260906030109 | 68 | 92 | 0.0 | 2.0 | 0.00 | 0.00 | 0.00 | 87 | 1018.3 |
| 20260906025541 | 68 | 90 | 1.0 | 3.0 | 0.00 | 0.00 | 0.00 | 86 | 1018.4 |
| 20260906025041 | 68 | 44 | 0.0 | 3.0 | 0.00 | 0.00 | 0.00 | 86 | 1018.3 |
| 20260906024605 | 68 | 101 | 1.0 | 4.0 | 0.00 | 0.00 | 0.00 | 86 | 1018.4 |
| 20260906024040 | 68 | 93 | 1.0 | 4.0 | 0.00 | 0.00 | 0.00 | 86 | 1018.4 |
| 20260906023541 | 68 | 51 | 1.0 | 4.0 | 0.00 | 0.00 | 0.00 | 86 | 1018.3 |
| 20260906023112 | 68 | 54 | 1.0 | 2.0 | 0.00 | 0.00 | 0.00 | 86 | 1018.3 |
| 20260906022541 | 68 | 65 | 0.0 | 2.0 | 0.00 | 0.00 | 0.00 | 86 | 1018.3 |
| 20260906022041 | 68 | 57 | 1.0 | 2.0 | 0.00 | 0.00 | 0.00 | 85 | 1018.3 |
| 20260906021605 | 69 | 119 | 0.0 | 2.0 | 0.00 | 0.00 | 0.00 | 85 | 1018.3 |
| 20260906021041 | 69 | 92 | 0.0 | 2.0 | 0.00 | 0.00 | 0.00 | 85 | 1018.4 |
| 20260906020540 | 69 | 79 | 0.0 | 2.0 | 0.00 | 0.00 | 0.00 | 85 | 1018.4 |
| 20260906015539 | 69 | 82 | 1.0 | 3.0 | 0.00 | 0.00 | 0.00 | 84 | 1018.3 |
| 20260906015041 | 69 | 76 | 1.0 | 4.0 | 0.00 | 0.00 | 0.00 | 84 | 1018.3 |
| 20260906014612 | 70 | 78 | 1.0 | 4.0 | 0.00 | 0.00 | 0.00 | 83 | 1018.1 |
| 20260906014040 | 70 | 57 | 1.0 | 7.0 | 0.00 | 0.00 | 0.00 | 83 | 1017.9 |
| 20260906013541 | 70 | 44 | 1.0 | 7.0 | 0.00 | 0.00 | 0.00 | 82 | 1017.9 |
| 20260906013104 | 70 | 112 | 2.0 | 5.0 | 0.00 | 0.00 | 0.00 | 82 | 1017.9 |
| 20260906012542 | 71 | 91 | 2.0 | 5.0 | 0.00 | 0.00 | 0.00 | 82 | 1017.6 |
| 20260906012039 | 71 | 42 | 1.0 | 5.0 | 0.00 | 0.00 | 0.00 | 82 | 1017.6 |
| 20260906011610 | 71 | 45 | 1.0 | 5.0 | 0.00 | 0.00 | 0.00 | 81 | 1017.5 |
| 20260906011042 | 71 | 25 | 1.0 | 3.0 | 0.00 | 0.00 | 0.00 | 81 | 1017.3 |
| 20260906010540 | 71 | 39 | 1.0 | 4.0 | 0.00 | 0.00 | 0.00 | 81 | 1017.0 |
| 20260906010111 | 72 | 28 | 1.0 | 4.0 | 0.00 | 0.00 | 0.00 | 80 | 1017.0 |
| 20260906005540 | 72 | 89 | 2.0 | 4.0 | 0.00 | 0.00 | 0.00 | 80 | 1016.9 |
| 20260906005041 | 72 | 135 | 2.0 | 4.0 | 0.00 | 0.00 | 0.00 | 79 | 1016.7 |
| 20260906004600 | 73 | 102 | 1.0 | 4.0 | 0.00 | 0.00 | 0.00 | 78 | 1016.6 |
| 20260906004041 | 73 | 36 | 1.0 | 6.0 | 0.00 | 0.00 | 0.00 | 78 | 1016.6 |
| 20260906003541 | 73 | 82 | 2.0 | 6.0 | 0.00 | 0.00 | 0.00 | 77 | 1016.4 |
| 20260906003104 | 74 | 48 | 2.0 | 9.0 | 0.00 | 0.00 | 0.00 | 77 | 1016.3 |
| 20260906002540 | 75 | 27 | 2.0 | 9.0 | 0.00 | 0.00 | 0.00 | 76 | 1016.0 |
| 20260906002052 | 75 | 33 | 2.0 | 4.0 | 0.00 | 0.00 | 0.00 | 75 | 1015.9 |
| 20260906001601 | 76 | 38 | 1.0 | 7.0 | 0.00 | 0.00 | 0.00 | 75 | 1015.8 |
| 20260906001040 | 76 | 32 | 2.0 | 7.0 | 0.00 | 0.00 | 0.00 | 75 | 1015.8 |
| 20260906000540 | 76 | 74 | 2.0 | 7.0 | 0.00 | 0.00 | 0.00 | 74 | 1015.9 |
| 20260906000109 | 77 | 107 | 2.0 | 4.0 | 0.00 | 0.00 | 0.00 | 73 | 1015.8 |
| 20260905235543 | 77 | 112 | 1.0 | 6.0 | 0.00 | 0.00 | 0.00 | 73 | 1015.8 |
| 20260905235041 | 77 | 119 | 1.0 | 6.0 | 0.00 | 0.00 | 0.00 | 73 | 1015.7 |
| 20260905234559 | 77 | 94 | 2.0 | 7.0 | 0.00 | 0.00 | 0.00 | 73 | 1015.6 |
| 20260905234041 | 77 | 115 | 2.0 | 10.0 | 0.00 | 0.00 | 0.00 | 73 | 1015.5 |
| 20260905233541 | 77 | 78 | 5.0 | 10.0 | 0.00 | 0.00 | 0.00 | 73 | 1015.7 |
| 20260905233107 | 77 | 63 | 2.0 | 11.0 | 0.00 | 0.00 | 0.00 | 73 | 1015.5 |
| 20260905232543 | 77 | 117 | 3.0 | 11.0 | 0.00 | 0.00 | 0.00 | 73 | 1015.6 |
| 20260905232041 | 77 | 71 | 4.0 | 11.0 | 0.00 | 0.00 | 0.00 | 72 | 1015.7 |
| 20260905231618 | 77 | 49 | 2.0 | 10.0 | 0.00 | 0.00 | 0.00 | 73 | 1015.7 |
| 20260905231041 | 77 | 87 | 2.0 | 10.0 | 0.00 | 0.00 | 0.00 | 73 | 1015.7 |
| 20260905230541 | 76 | 73 | 4.0 | 10.0 | 0.00 | 0.00 | 0.00 | 72 | 1015.7 |
| 20260905230108 | 77 | 75 | 4.0 | 9.0 | 0.00 | 0.00 | 0.00 | 72 | 1015.6 |
| 20260905225540 | 77 | 143 | 3.0 | 8.0 | 0.00 | 0.00 | 0.00 | 72 | 1015.7 |
| 20260905225038 | 77 | 47 | 1.0 | 9.0 | 0.00 | 0.00 | 0.00 | 72 | 1015.8 |
| 20260905224603 | 77 | 59 | 2.0 | 9.0 | 0.00 | 0.00 | 0.00 | 72 | 1015.8 |
| 20260905224041 | 77 | 94 | 4.0 | 9.0 | 0.00 | 0.00 | 0.00 | 72 | 1015.9 |
| 20260905223540 | 77 | 57 | 4.0 | 9.0 | 0.00 | 0.00 | 0.00 | 72 | 1016.0 |
| 20260905223105 | 77 | 86 | 3.0 | 11.0 | 0.00 | 0.00 | 0.00 | 71 | 1015.9 |
| 20260905222541 | 77 | 69 | 4.0 | 11.0 | 0.00 | 0.00 | 0.00 | 71 | 1016.0 |
| 20260905222041 | 77 | 55 | 3.0 | 8.0 | 0.00 | 0.00 | 0.00 | 70 | 1016.2 |
| 20260905221621 | 77 | 5 | 3.0 | 8.0 | 0.00 | 0.00 | 0.00 | 72 | 1016.3 |
| 20260905221041 | 76 | 9 | 3.0 | 9.0 | 0.00 | 0.00 | 0.00 | 73 | 1016.4 |
| 20260905220541 | 76 | 71 | 4.0 | 9.0 | 0.00 | 0.00 | 0.00 | 72 | 1016.7 |
| 20260905220106 | 76 | 31 | 4.0 | 8.0 | 0.00 | 0.00 | 0.00 | 72 | 1016.7 |
| 20260905215541 | 76 | 37 | 4.0 | 6.0 | 0.00 | 0.00 | 0.00 | 73 | 1016.7 |
| 20260905215042 | 76 | 67 | 3.0 | 8.0 | 0.00 | 0.00 | 0.00 | 72 | 1016.8 |
| 20260905214606 | 76 | 38 | 3.0 | 8.0 | 0.00 | 0.00 | 0.00 | 72 | 1016.9 |
| 20260905214042 | 76 | 69 | 4.0 | 8.0 | 0.00 | 0.00 | 0.00 | 72 | 1017.0 |
| 20260905213542 | 76 | 62 | 3.0 | 8.0 | 0.00 | 0.00 | 0.00 | 73 | 1017.1 |
| 20260905213105 | 76 | 101 | 3.0 | 10.0 | 0.00 | 0.00 | 0.00 | 73 | 1017.3 |
| 20260905212543 | 76 | 27 | 2.0 | 10.0 | 0.00 | 0.00 | 0.00 | 74 | 1017.3 |
| 20260905212042 | 75 | 28 | 4.0 | 10.0 | 0.00 | 0.00 | 0.00 | 74 | 1017.4 |
| 20260905211600 | 75 | 76 | 4.0 | 9.0 | 0.00 | 0.00 | 0.00 | 74 | 1017.3 |
| 20260905211041 | 75 | 59 | 4.0 | 12.0 | 0.00 | 0.00 | 0.00 | 74 | 1017.3 |
| 20260905210545 | 75 | 33 | 4.0 | 12.0 | 0.00 | 0.00 | 0.00 | 75 | 1017.4 |
| 20260905210114 | 75 | 55 | 4.0 | 12.0 | 0.00 | 0.00 | 0.00 | 74 | 1017.4 |
| 20260905205541 | 75 | 40 | 2.0 | 7.0 | 0.00 | 0.00 | 0.00 | 74 | 1017.5 |
| 20260905205041 | 75 | 48 | 2.0 | 8.0 | 0.00 | 0.00 | 0.00 | 75 | 1017.6 |
| 20260905204605 | 75 | 26 | 4.0 | 9.0 | 0.00 | 0.00 | 0.00 | 76 | 1017.6 |
| 20260905204041 | 75 | 31 | 3.0 | 11.0 | 0.00 | 0.00 | 0.00 | 74 | 1017.8 |
| 20260905203540 | 75 | 12 | 6.0 | 11.0 | 0.00 | 0.00 | 0.00 | 74 | 1017.6 |
| 20260905203102 | 75 | 63 | 4.0 | 6.0 | 0.00 | 0.00 | 0.00 | 74 | 1017.6 |
| 20260905202540 | 76 | 34 | 2.0 | 8.0 | 0.00 | 0.00 | 0.00 | 72 | 1017.7 |
| 20260905202043 | 76 | 51 | 2.0 | 8.0 | 0.00 | 0.00 | 0.00 | 73 | 1017.9 |